Weather History for Tulsa, OK

Change the Weather History Date:

Wednesday, March 6, 2013

  Actual Average Record
Temperature  
Mean Temperature 37 °F 48 °F  
Max Temperature 49 °F 59 °F 87 °F (1974)
Min Temperature 24 °F 37 °F 13 °F (1943)
Degree Days  
Heating Degree Days 28 17  
Month to date heating degree days 136 107  
Since 1 July heating degree days 2808 3018  
Cooling Degree Days 0 0  
Month to date cooling degree days 0 0  
Year to date cooling degree days 2 1  
Moisture  
Dew Point 21 °F    
Average Humidity 53    
Maximum Humidity 75    
Minimum Humidity 31    
Precipitation  
Precipitation 0.00 in 0.10 in 1.57 in (1973)
Month to date precipitation 0.01 0.59  
Year to date precipitation 4.73 4.10  
Sea Level Pressure  
Sea Level Pressure 30.37 in    
Wind  
Wind Speed 5 mph (NNE)    
Max Wind Speed 10 mph    
Max Gust Speed 15 mph    
Visibility 10 miles    
Events      
T = Trace of Precipitation, MM = Missing Value Source: NWS Daily Summary

Daily Weather History Graph

Daily Weather History Graph

Search for Another Location

Airport:

Trip Planner

Search our weather history database for the weather conditions in past years. The results will help you decide how hot, cold, wet, or windy it might be!

Date:

Astronomy

Mar. 06, 2013 Rise Set
Actual Time 6:46 AM CST 6:23 PM CST
Civil Twilight 6:21 AM CST 6:48 PM CST
Nautical Twilight 5:51 AM CST 7:18 PM CST
Astronomical Twilight 5:21 AM CST 7:48 PM CST
Moon 2:49 AM CST (3/6) 1:13 PM CST (3/6)
Length of Visible Light 12h 27m
Length of Day
11h 36m
Waning Crescent, 29% of the Moon is Illuminated
Mar 6
Waning Crescent
Mar 11
New
Mar 19
First Quarter
Mar 27
Full
Apr 2
Last Quarter

Hourly Weather History & Observations

Time (CST) Temp. Windchill Dew Point Humidity Pressure Visibility Wind Dir Wind Speed Gust Speed Precip Events Conditions
12:53 AM 28.9 °F 21.9 °F 21.0 °F 72% 30.41 in 10.0 mi WNW 6.9 mph - N/A   Clear
1:53 AM 28.0 °F 20.8 °F 19.9 °F 72% 30.42 in 10.0 mi NNW 6.9 mph - N/A   Clear
2:53 AM 26.1 °F 18.4 °F 19.9 °F 78% 30.42 in 10.0 mi NNW 6.9 mph - N/A   Clear
3:53 AM 26.1 °F 20.5 °F 19.0 °F 75% 30.42 in 10.0 mi NNW 4.6 mph - N/A   Clear
4:53 AM 25.0 °F 18.1 °F 18.0 °F 75% 30.44 in 10.0 mi NNW 5.8 mph - N/A   Clear
5:53 AM 24.1 °F 16.0 °F 18.0 °F 77% 30.45 in 10.0 mi NNW 6.9 mph - N/A   Clear
6:53 AM 24.1 °F 16.0 °F 18.0 °F 77% 30.45 in 10.0 mi North 6.9 mph - N/A   Clear
7:53 AM 28.0 °F 24.2 °F 19.9 °F 72% 30.46 in 10.0 mi North 3.5 mph - N/A   Clear
8:53 AM 32.0 °F 24.8 °F 21.0 °F 64% 30.46 in 10.0 mi NE 8.1 mph - N/A   Clear
9:53 AM 35.1 °F - 19.9 °F 54% 30.47 in 10.0 mi Calm Calm - N/A   Clear
10:53 AM 39.0 °F 34.8 °F 21.0 °F 49% 30.47 in 10.0 mi NNW 5.8 mph - N/A   Clear
11:53 AM 41.0 °F - 19.0 °F 41% 30.45 in 10.0 mi Calm Calm - N/A   Clear
12:53 PM 44.1 °F 40.8 °F 21.0 °F 40% 30.40 in 10.0 mi NNE 5.8 mph - N/A   Clear
1:53 PM 46.9 °F - 19.9 °F 34% 30.37 in 10.0 mi Variable 3.5 mph - N/A   Clear
2:53 PM 46.9 °F - 19.9 °F 34% 30.35 in 10.0 mi NW 3.5 mph - N/A   Clear
3:53 PM 48.0 °F - 19.9 °F 33% 30.33 in 10.0 mi South 4.6 mph - N/A   Clear
4:53 PM 48.0 °F - 19.9 °F 33% 30.30 in 10.0 mi Calm Calm - N/A   Clear
5:53 PM 46.9 °F - 21.9 °F 37% 30.28 in 10.0 mi East 3.5 mph - N/A   Clear
6:53 PM 46.0 °F 43.9 °F 21.9 °F 39% 30.28 in 10.0 mi NE 4.6 mph - N/A   Clear
7:53 PM 43.0 °F 40.3 °F 24.1 °F 47% 30.26 in 10.0 mi ESE 4.6 mph - N/A   Clear
8:53 PM 42.1 °F 39.2 °F 25.0 °F 51% 30.26 in 10.0 mi ESE 4.6 mph - N/A   Clear
9:53 PM 43.0 °F 38.2 °F 24.1 °F 47% 30.26 in 10.0 mi East 8.1 mph - N/A   Clear
10:53 PM 42.1 °F 38.4 °F 25.0 °F 51% 30.24 in 10.0 mi East 5.8 mph - N/A   Clear
11:53 PM 41.0 °F 35.8 °F 25.0 °F 53% 30.22 in 7.0 mi East 8.1 mph - N/A   Clear